Regional Weather Roundup
Issued by NWS

Home | Current Version | Previous Version | Graphics & Text | Print | Product List | Glossary Off
Versions: 1 2 3 4 5 6 7 8 9 10 11 12 13 14 15 16 17 18 19 20 21 22 23 24 25 26 27 28 29 30 31 32 33 34 35 36 37 38 39 40 41 42 43 44 45 46 47 48 49 50

000
ASUS43 KLOT 251809
RWRIL

ILLINOIS REGIONAL WEATHER ROUNDUP
NATIONAL WEATHER SERVICE CHICAGO/ROMEOVILLE IL
100 PM CDT THU MAY 25 2017

NOTE: "FAIR" INDICATES FEW OR NO CLOUDS BELOW 12,000 FEET WITH NO
SIGNIFICANT WEATHER AND/OR OBSTRUCTIONS TO VISIBILITY.

* THESE STATIONS ARE NOT UNDER NWS QUALITY CONTROL. THEY ALSO MAY NOT
  REPORT WEATHER SUCH AS PRECIPITATION OR FOG.

ILZ001-002-007-009-015-016-024-251900-
NORTHWEST ILLINOIS

CITY           SKY/WX    TMP DP  RH WIND       PRES   REMARKS
MOLINE         MOSUNNY   68  54  60 NE7       29.69S
6HR MIN TEMP:  55; 6HR MAX TEMP:  69;

STERLING*      CLOUDY    62  54  74 NW6       29.70S
SAVANNA*       CLOUDY    61  53  75 N3        29.70S
$$

ILZ003-004-008-010-011-017-018-251900-
NORTH CENTRAL ILLINOIS

CITY           SKY/WX    TMP DP  RH WIND       PRES   REMARKS
ROCKFORD       CLOUDY    64  53  67 N10       29.70R
6HR MIN TEMP:  55; 6HR MAX TEMP:  65;

FREEPORT*      CLOUDY    63  55  75 N6        29.70F
ROCHELLE*      CLOUDY    61  54  79 NW12      29.69S
DE KALB*       CLOUDY    60  54  80 NW8       29.68S
PERU*          CLOUDY    59  53  79 NW14      29.70S
$$

ILZ005-006-012>014-019>023-251900-
NORTHEAST ILLINOIS

CITY           SKY/WX    TMP DP  RH WIND       PRES   REMARKS
CHICAGO-OHARE  CLOUDY    66  53  63 N9        29.62F
6HR MIN TEMP:  55; 6HR MAX TEMP:  66;

CHICAGO-MIDWAY CLOUDY    64  53  67 N10       29.63R
6HR MIN TEMP:  56; 6HR MAX TEMP:  64;

AURORA         CLOUDY    63  55  75 NW13      29.66S
6HR MIN TEMP:  56; 6HR MAX TEMP:  63;

LANSING*       PTSUNNY   62  57  83 N8        29.63F
JOLIET*        CLOUDY    64  55  73 NW5       29.65S
WAUKEGAN       MOSUNNY   64  53  67 N10G20    29.63R
6HR MIN TEMP:  53; 6HR MAX TEMP:  66;

DUPAGE AIRPORT PTSUNNY   66  56  70 N10       29.64S
6HR MIN TEMP:  54; 6HR MAX TEMP:  66;

KANKAKEE*      CLOUDY    63  54  72 CALM      29.65S
WHEELING       CLOUDY    64  55  72 N8        29.64R
6HR MIN TEMP:  54; 6HR MAX TEMP:  64;

MORRIS*        CLOUDY    62  55  76 NW13G18   29.66S
ROMEOVILLE*    CLOUDY    64  58  82 NW9       29.65S
NORTHERLY ISL    N/A     58  51  78 MISG        N/A
$$

LMZ740>746-251900-
SOUTHERN LAKE MICHIGAN

STATION/POSITION SKY/WX   TEMP    WIND        PRES    VSBY  WAVE
                          AIR SEA DIR/SP/G                  HT/PER
                          (F)     (DEG/KT/KT) (MB)    (MI)  (FT/S)
SOUTHERN BUOY              46 45  360/ 12/ 14 1002.6          3/ 5
WILMETTE HARBOR            50 52                N/A           4/ 5
HARRISON CRIB              53     340/ 15/ 17   N/A
BURNHAM HARBOR             60     330/  8/ 17   N/A
CALUMET HARBOR             56     340/ 15/ 21 1003.4R
BURNS HARBOR               50     320/ 13/ 16 1003.7S
MICHIGAN CITY              48     290/ 15/ 16   N/A
MICHIGAN CITY 6N           48 51  310/ 14/ 17   N/A           5/ 5
ST. JOSEPH                 52 56  340/ 12/ 17 1002.7          4/ 5
$$

ILZ025>027-034>036-040-047-049-050-058-095>099-251900-
WEST-CENTRAL ILLINOIS

CITY           SKY/WX    TMP DP  RH WIND       PRES   REMARKS
QUINCY         MOSUNNY   66  53  63 VRB6      29.72S
GALESBURG*     MOSUNNY   67  54  61 NW7       29.69S
MACOMB*        MOSUNNY   67  55  66 NW6       29.73S
JACKSONVILLE*  PTSUNNY   66  54  64 W7        29.71S
PITTSFIELD*    MOSUNNY   67  54  61 W5        29.73S
$$

ILZ028>032-037-038-041>044-048-051>054-059>061-251900-
CENTRAL ILLINOIS

CITY           SKY/WX    TMP DP  RH WIND       PRES   REMARKS
PONTIAC        CLOUDY    62  57  85 NW15      29.69S
BLOOMINGTON    CLOUDY    60  54  80 NW13      29.71R
DECATUR        CLOUDY    63  55  75 NW10      29.70S
PEORIA         PTSUNNY   66  55  67 VRB6      29.69F
6HR MIN TEMP:  54; 6HR MAX TEMP:  67;

LACON*         CLOUDY    58  54  87 NW7       29.70S
LINCOLN*       PTSUNNY   68  59  73 NW5       29.69F
SPRINGFIELD    MOSUNNY   70  57  63 N9        29.70S
6HR MIN TEMP:  55; 6HR MAX TEMP:  70;

TAYLORVILLE    PTSUNNY   67  56  69 NW10G16   29.70S
6HR MIN TEMP:  55; 6HR MAX TEMP:  67;

$$

ILZ033-039-045-046-055>057-062-063-251900-
EAST-CENTRAL ILLINOIS

CITY           SKY/WX    TMP DP  RH WIND       PRES   REMARKS
CHAMPAIGN      CLOUDY    60  54  80 NW13      29.68R
RANTOUL*       CLOUDY    63  56  80 NW14      29.68R
MATTOON        CLOUDY    61  57  87 NW12      29.69R
PARIS*         CLOUDY    62  56  82 NW14      29.68R
$$

ILZ079-100>102-251900-
SOUTHWEST ILLINOIS

CITY           SKY/WX    TMP DP  RH WIND       PRES   REMARKS
ALTON          MOSUNNY   68  52  56 W8        29.73R
BELLEVILLE     MOSUNNY   71  53  53 NW8       29.73S
CAHOKIA*       MOSUNNY   72  49  44 VRB6      29.72S
SPARTA*        MOSUNNY   69  53  55 NW3       29.74S
$$

ILZ064>066-069>071-074>076-080>082-084>086-088>090-092>094-251900-
SOUTH-CENTRAL ILLINOIS

CITY           SKY/WX    TMP DP  RH WIND       PRES   REMARKS
CARBONDALE     PTSUNNY   71  54  54 W9        29.73S
6HR MIN TEMP:  56; 6HR MAX TEMP:  72;

CAIRO*         SUNNY     71  52  50 W8        29.75S
EFFINGHAM*     CLOUDY    69  59  72 W10       29.71R
MARION         MOSUNNY   72  54  53 W7        29.74S
MT. VERNON       N/A     70  55  59 W9G16     29.71S
CENTRALIA*     SUNNY     69  56  61 NW8G16    29.70F
SALEM*         PTSUNNY   70  55  59 W12       29.70F
METROPOLIS*    MOSUNNY   73  53  50 W6        29.76R
$$

ILZ067-068-072-073-078-083-087-091-251900-
SOUTHEAST ILLINOIS

CITY           SKY/WX    TMP DP  RH WIND       PRES   REMARKS
LAWRENCEVILLE  CLOUDY    66  57  72 NW14      29.68R
FLORA*         CLOUDY    70  57  63 NW13      29.70S
FAIRFIELD*     PTSUNNY   69  56  62 NW6       29.70R
HARRISBURG*    SUNNY     72  55  55 W14G20    29.72S
ROBINSON*      CLOUDY    62  56  81 NW10      29.69S
CARMI*         PTSUNNY   70  57  62 W13G21    29.69S
$$

ABBREVIATIONS USED IN REMARKS
   TC - TEMPERATURE IN CELSIUS
  WCI - WIND CHILL INDEX
   HX - HEAT INDEX
  VSB - VISIBILITY
$$




USA.gov is the U.S. government's official web portal to all federal, state and local government web resources and services.